Burbank, CA

7:40 AM PST on November 24, 2017 (GMT -0800)
Burbank-Glendale-Pasadena

Weather History for KBUR - April, 2013

Change the Weather History Date:

Thursday, April 11, 2013

  Actual Average Record
Temperature  
Mean Temperature 67 °F 61 °F  
Max Temperature 78 °F 73 °F 93 °F (1946)
Min Temperature 55 °F 49 °F 35 °F (1977)
Degree Days  
Heating Degree Days 0 5  
Month to date heating degree days 5 62  
Since 1 July heating degree days 1085 1421  
Cooling Degree Days 2 1  
Month to date cooling degree days 23 11  
Year to date cooling degree days 73 27  
Growing Degree Days 16 (Base 50)    
Moisture  
Dew Point 40 °F    
Average Humidity 45    
Maximum Humidity 72    
Minimum Humidity 17    
Precipitation  
Precipitation 0.00 in 0.03 in 0.91 in (1967)
Month to date precipitation T 0.53  
Year to date precipitation 1.90 11.51  
Since 1 July precipitation 4.70  
Sea Level Pressure  
Sea Level Pressure 29.85 in    
Wind  
Wind Speed 6 mph (SSE)    
Max Wind Speed 16 mph    
Max Gust Speed 21 mph    
Visibility 10 miles    
Events      
T = Trace of Precipitation, MM = Missing Value Source: NWS Daily Summary

Daily Weather History Graph

Daily Weather History Graph

Search for Another Location

Airport or City:

Trip Planner

Search our weather history database for the weather conditions in past years. The results will help you decide how hot, cold, wet, or windy it might be!

Date:

Astronomy

Apr. 11, 2013 Rise Set
Actual Time 6:26 AM PDT 7:22 PM PDT
Civil Twilight 6:01 AM PDT 7:47 PM PDT
Nautical Twilight 5:31 AM PDT 8:18 PM PDT
Astronomical Twilight 4:59 AM PDT 8:49 PM PDT
Moon 7:05 AM PDT (4/11) 8:56 PM PDT (4/11)
Length of Visible Light 13h 46m
Length of Day
12h 55m
New Moon, 2% of the Moon is Illuminated
Apr 11
New Moon
Apr 18
First Quarter
Apr 25
Full
May 2
Last Quarter
May 9
New

Hourly Weather History & Observations

Time (PDT) Temp. Dew Point Humidity Pressure Visibility Wind Dir Wind Speed Gust Speed Precip Events Conditions
12:53 AM 63.0 °F 37.0 °F 38% 29.96 in 10.0 mi NNE 3.5 mph - N/A   Clear
1:53 AM 62.1 °F 32.0 °F 32% 29.95 in 10.0 mi Calm Calm - N/A   Clear
2:53 AM 59.0 °F 33.1 °F 38% 29.94 in 10.0 mi NNE 3.5 mph - N/A   Clear
3:53 AM 60.1 °F 42.1 °F 51% 29.93 in 10.0 mi ENE 5.8 mph - N/A   Clear
4:53 AM 57.9 °F 39.0 °F 49% 29.92 in 10.0 mi Calm Calm - N/A   Clear
5:53 AM 55.9 °F 32.0 °F 40% 29.91 in 10.0 mi Calm Calm - N/A   Clear
6:53 AM 55.9 °F 32.0 °F 40% 29.91 in 10.0 mi Calm Calm - N/A   Clear
7:53 AM 60.1 °F 32.0 °F 35% 29.92 in 10.0 mi Calm Calm - N/A   Clear
8:53 AM 64.9 °F 32.0 °F 29% 29.91 in 10.0 mi Calm Calm - N/A   Clear
9:53 AM 70.0 °F 34.0 °F 27% 29.91 in 10.0 mi Calm Calm - N/A   Clear
10:53 AM 73.9 °F 27.0 °F 18% 29.88 in 10.0 mi SSE 11.5 mph - N/A   Clear
11:53 AM 77.0 °F 30.9 °F 19% 29.85 in 10.0 mi SSE 8.1 mph - N/A   Clear
12:53 PM 77.0 °F 30.9 °F 19% 29.83 in 10.0 mi SSW 10.4 mph 17.3 mph N/A   Clear
1:53 PM 75.9 °F 41.0 °F 29% 29.80 in 10.0 mi South 11.5 mph - N/A   Clear
2:53 PM 75.0 °F 44.1 °F 33% 29.78 in 10.0 mi SSE 15.0 mph - N/A   Clear
3:53 PM 73.9 °F 45.0 °F 35% 29.77 in 10.0 mi South 11.5 mph - N/A   Clear
4:53 PM 71.1 °F 48.0 °F 44% 29.75 in 10.0 mi South 9.2 mph - N/A   Clear
5:53 PM 71.1 °F 48.0 °F 44% 29.75 in 10.0 mi South 6.9 mph - N/A   Clear
6:53 PM 68.0 °F 48.9 °F 50% 29.75 in 10.0 mi South 6.9 mph - N/A   Clear
7:53 PM 64.9 °F 48.9 °F 56% 29.76 in 10.0 mi South 6.9 mph - N/A   Clear
8:53 PM 63.0 °F 48.0 °F 58% 29.78 in 10.0 mi SSE 8.1 mph - N/A   Clear
9:53 PM 60.1 °F 48.0 °F 64% 29.80 in 10.0 mi South 3.5 mph - N/A   Clear
10:53 PM 60.1 °F 48.0 °F 64% 29.79 in 10.0 mi South 3.5 mph - N/A   Clear
11:53 PM 59.0 °F 50.0 °F 72% 29.79 in 10.0 mi SE 5.8 mph - N/A   Clear